Вернуться в каталог

THOR ABLESTAR DEB

АктивенLEO
NORAD 406·DEBRIS·🇺🇸 United States

Запущен Jun 29, 1961 с Cape Canaveral Space Force Station

Loading…

Ближайшие Пролёты (ближайшие 24 часа)

TLE

СвежийSource: Space-Track

Эпоха: Sep 14, 2026, 02:27 UTC

1 00406U 61015EF  26257.10269157  .00000300  00000-0  40629-3 0  9993
2 00406  66.7774 143.6609 0118759 333.6652 174.7749 13.69685007233379

Отслеживайте THOR ABLESTAR DEB в реальном времени с AllMySat

Download on the App Store